Tracking 19575 objects as of 19-Feb-2019
HD Live streaming from Space Station
objects crossing your sky now

RADUGA 6

Track RADUGA 6 now!
RADUGA 6 is classified as:


NORAD ID: 11708
Int'l Code: 1980-016A
Perigee: 35,798.6 km
Apogee: 35,818.0 km
Inclination: 11.8 °
Period: 1,436.8 minutes
Semi major axis: 42179 km
RCS: 1.2589 m2 (large)
Launch date: February 20, 1980
Source: Commonwealth of Independent States (former USSR) (CIS)
Launch site: TYURATAM MISSILE AND SPACE COMPLEX (TTMTR)
aabbcc
Your satellite tracking list
Your tracking list is empty




NASA's NSSDC Master Catalog

Two Line Element Set (TLE):
1 11708U 80016A   19049.73298862 -.00000286 +00000-0 +00000-0 0  9997
2 11708 011.8094 316.6859 0002298 330.3183 222.0350 01.00219777095330
Source of the keplerian elements: AFSPC